Location: Bailey Volunteer Fire Department
(33.4359°N, 96.1680°W)
Time: 17:58:35
(UTC+00:00)

EPKM - Pass Details

Date: 13 December 2025
Orbit: 293 x 16626 km, 25.8° (Epoch: 14 January)

Event Time Altitude Azimuth Distance (km) Brightness Sun altitude
Exits shadow 12:20:25 - 242° (WSW) 1,793 4.5 -12.2°
Reaches altitude 10° 12:20:49 10° 238° (WSW) 1,616 4.3 -12.2°
Maximum altitude 12:22:56 17° 192° (SSW) 950 3.6 -11.8°
Drops below altitude 10° 12:24:30 10° 144° (SE) 1,147 4.9 -11.4°
Sets 12:26:30 0° 119° (ESE) 1,984 7.2 -11.1°
